[[{"header":{"parameterUnit":"m.s-1","parameterCategory":1,"la1":30.2991,"la2":30.254,"lo1":-89.0895,"lo2":-89.0444,"dy":0.0017,"dx":0.0017,"nx":28,"ny":28,"refTime":"2025-08-28T03:00:00:Z","depth":0,"parameterNumber":2,"parameterNumberName":"U-component_of_WINDS"},"data":[0,0,0,0,0,0,0,0,0,0,0,0,0,0,0,0,0,0,0,0,0,0,0,0,0,0,0,0,0,0,0,0,0,0,0,0,0,0,0,0,0,0,0,0,0,0,0,0,0,0,0,0,0,0,0,0,0,0,-3.2502,-3.2503,0,-3.2595,-3.2596,-3.2597,-3.2594,-3.2593,-3.2591,-3.259,-3.268,-3.2683,-3.2687,0,0,0,0,0,0,0,0,0,0,0,0,0,-3.2317,-3.232,-3.2502,-3.2503,-3.2504,-3.2595,-3.2596,-3.2598,-3.2594,-3.2592,-3.2591,-3.2589,-3.2679,-3.2683,-3.2687,0,0,0,0,0,0,0,0,0,0,0,0,0,-3.2402,-3.2321,-3.2502,-3.2514,-3.2516,-3.2595,-3.2596,-3.2598,-3.2594,-3.2592,-3.2591,-3.2589,-3.2677,-3.2682,-3.2688,-3.2759,0,0,-3.2704,-3.2706,0,0,0,0,0,0,0,0,-3.2397,-3.2409,-3.2511,-3.2513,-3.2515,-3.2581,-3.2564,-3.2652,-3.2595,-3.2564,-3.259,-3.2588,-3.2648,-3.2656,-3.2677,-3.2764,-3.2767,-3.2705,-3.2708,-3.271,-3.2712,0,0,0,0,0,0,0,-3.2391,-3.2405,-3.2539,-3.2512,-3.2515,-3.2513,-3.2523,-3.2581,-3.2616,-3.2567,-3.2567,-3.2578,-3.2649,-3.2672,-3.2679,-3.2769,-3.2704,-3.2709,-3.2713,-3.2715,-3.292,-3.2922,0,0,0,0,0,0,-3.2383,-3.24,-3.2536,-3.2541,-3.245,-3.2518,-3.2529,-3.2562,-3.2615,-3.2621,-3.258,-3.2578,-3.2664,-3.2673,-3.2682,-3.277,-3.271,-3.2715,-3.2718,-3.2918,-3.292,-3.2923,0,0,0,0,0,0,-3.238,-3.2396,-3.2532,-3.2471,-3.2488,-3.2523,-3.256,-3.2565,-3.2588,-3.2625,-3.2631,-3.2597,-3.2663,-3.2675,-3.2741,-3.2773,-3.2718,-3.2722,-3.2915,-3.2918,-3.2922,-3.2945,0,0,0,0,0,0,-3.2374,-3.2394,-3.2422,-3.2472,-3.2491,-3.259,-3.2562,-3.2568,-3.2598,-3.2596,-3.2643,-3.2649,-3.2662,-3.2733,-3.2746,-3.2779,-3.2727,-3.2912,-3.2917,-3.292,-3.2941,-3.2949,-3.2955,0,0,0,0,0,-3.2368,-3.2424,-3.2424,-3.244,-3.2528,-3.2592,-3.2603,-3.2619,-3.26,-3.2628,-3.2653,-3.2647,-3.2768,-3.274,-3.2755,-3.279,-3.291,-3.2915,-3.292,-3.2938,-3.2947,-3.2955,0,0,0,0,0,0,-3.2374,-3.243,-3.2431,-3.2505,-3.2544,-3.2591,-3.2626,-3.2628,-3.2671,-3.2667,-3.2684,-3.2694,-3.276,-3.2782,-3.275,-3.2863,-3.2837,-3.2845,-3.2845,-3.2854,-3.2861,-3.2853,-3.2731,0,0,0,0,0,-3.2385,-3.2434,-3.248,-3.2541,-3.2561,-3.2591,-3.2619,-3.2629,-3.2669,-3.2684,-3.2713,-3.2751,-3.2798,-3.2828,-3.2872,-3.2946,-3.2956,-3.2978,-3.2985,-3.299,-3.2996,-3.3036,-3.3046,-3.2939,-3.2939,-3.2939,0,0,-3.2406,-3.2443,-3.2472,-3.2543,-3.2574,-3.2623,-3.2604,-3.2656,-3.2692,-3.2692,-3.2756,-3.2779,-3.2822,-3.2893,-3.2925,-3.2913,-3.3028,-3.2996,-3.3,-3.3003,-3.3043,-3.3053,-3.3062,-3.2943,-3.2942,-3.2941,0,0,-3.247,-3.2503,-3.2558,-3.2591,-3.264,-3.266,-3.2673,-3.2721,-3.2737,-3.2803,-3.2804,-3.2847,-3.2927,-3.2958,-3.2984,-3.3064,-3.306,-3.3078,-3.3112,-3.3151,-3.316,-3.3167,-3.3194,-3.3204,-3.3084,-3.3085,-3.3085,0,-3.2489,-3.2565,-3.2585,-3.2639,-3.267,-3.2675,-3.273,-3.276,-3.282,-3.2841,-3.2827,-3.2929,-3.2959,-3.3036,-3.3056,-3.3078,-3.3092,-3.3071,-3.3157,-3.3165,-3.3172,-3.3198,-3.3208,-3.3086,-3.3086,-3.3086,-3.3086,0,-3.2586,-3.2638,-3.2676,-3.2737,-3.2773,-3.2827,-3.2854,-3.2888,-3.2896,-3.2917,-3.2984,-3.3021,-3.3074,-3.3094,-3.31,-3.3173,-3.3164,-3.3154,-3.3127,-3.3184,-3.3208,-3.3219,-3.3089,-3.3088,-3.3088,-3.3087,0,0,-3.2651,-3.2726,-3.274,-3.2768,-3.2824,-3.2864,-3.2919,-3.2973,-3.3001,-3.3044,-3.3089,-3.3158,-3.3151,-3.318,-3.3191,-3.3227,-3.3286,-3.3212,-3.3214,-3.3223,-3.3367,-3.3373,-3.3384,-3.3286,-3.3288,-3.329,-3.3363,0,-3.2719,-3.2817,-3.2839,-3.2923,-3.2972,-3.298,-3.3027,-3.3066,-3.3089,-3.3133,-3.3157,-3.3206,-3.3192,-3.321,-3.3246,-3.3272,-3.3315,-3.3267,-3.3326,-3.3328,-3.3312,-3.3397,-3.3402,-3.347,-3.3373,-3.3375,-3.3376,0,-3.281,-3.2857,-3.2947,-3.2999,-3.302,-3.3063,-3.3115,-3.3157,-3.3202,-3.3216,-3.3252,-3.326,-3.3316,-3.3291,-3.3368,-3.3334,-3.3361,-3.3377,-3.338,-3.3384,-3.3353,-3.34,-3.3492,-3.3501,-3.3392,-3.339,-3.3389,0,-3.2847,-3.2933,-3.2998,-3.3023,-3.3085,-3.3115,-3.3142,-3.3185,-3.3217,-3.3263,-3.3284,-3.3335,-3.3362,-3.3401,-3.3422,-3.3402,-3.3498,-3.3474,-3.3509,-3.3509,-3.3526,-3.3524,-3.362,-3.3548,-3.3547,-3.3547,-3.3547,0,-3.2918,-3.2972,-3.3016,-3.3056,-3.3117,-3.3142,-3.3201,-3.3228,-3.3268,-3.3312,-3.3322,-3.3363,-3.3391,-3.3435,-3.3453,-3.3514,-3.3526,-3.3538,-3.3541,-3.3536,-3.3534,-3.355,-3.3545,-3.355,-3.3549,-3.3549,-3.3548,0,-3.2967,-3.3,-3.3071,-3.3126,-3.3141,-3.3184,-3.323,-3.3268,-3.3293,-3.3349,-3.3364,-3.3401,-3.3455,-3.3482,-3.3548,-3.356,-3.3628,-3.3629,-3.3613,-3.3613,-3.3647,-3.3643,-3.3755,-3.377,-3.369,-3.369,-3.3691,0,-3.3009,-3.3052,-3.3113,-3.3144,-3.3173,-3.3224,-3.3257,-3.3285,-3.3319,-3.3375,-3.3407,-3.3462,-3.3506,-3.3592,-3.3624,-3.3675,-3.3676,-3.3713,-3.3683,-3.3677,-3.3674,-3.3671,-3.3674,-3.3716,-3.3717,-3.3717,-3.3718,0,-3.308,-3.3095,-3.3144,-3.32,-3.324,-3.3284,-3.3328,-3.3353,-3.3388,-3.3426,-3.3482,-3.3517,-3.3587,-3.364,-3.3694,-3.3721,-3.3725,-3.3728,-3.3738,-3.3731,-3.3719,-3.3724,-3.3624,-3.3724,-3.3723,-3.3723,-3.3722,-3.3722,-3.3125,-3.3164,-3.3213,-3.3268,-3.3305,-3.3346,-3.3386,-3.3417,-3.3465,-3.3525,-3.3539,-3.3598,-3.3644,-3.3717,-3.3746,-3.3792,-3.3784,-3.3799,-3.3803,-3.3806,-3.3806,-3.3715,-3.3802,-3.3802,-3.3802,-3.3802,-3.3802,0,-3.3195,-3.3228,-3.3279,-3.3341,-3.3385,-3.3389,-3.3438,-3.3473,-3.3526,-3.357,-3.3615,-3.368,-3.3734,-3.3772,-3.3826,-3.3856,-3.3859,-3.3869,-3.3865,-3.3871,-3.3811,-3.3796,-3.3865,-3.3865,-3.3865,-3.3865,-3.3865,-3.3865,-3.3236,-3.3301,-3.3322,-3.3406,-3.3439,-3.3499,-3.3527,-3.3565,-3.36,-3.3673,-3.3718,-3.3744,-3.3786,-3.3843,-3.3892,-3.3902,-3.392,-3.393,-3.3939,-3.3882,-3.3875,-3.3869,-3.3854,-3.3934,-3.3935,-3.3995,-3.3996,-3.3996]},{"header":{"parameterUnit":"m.s-1","parameterCategory":1,"la1":30.2991,"la2":30.254,"lo1":-89.0895,"lo2":-89.0444,"dy":0.0017,"dx":0.0017,"nx":28,"ny":28,"refTime":"2025-08-28T03:00:00:Z","depth":0,"parameterNumber":3,"parameterNumberName":"V-component_of_WINDS"},"data":[0,0,0,0,0,0,0,0,0,0,0,0,0,0,0,0,0,0,0,0,0,0,0,0,0,0,0,0,0,0,0,0,0,0,0,0,0,0,0,0,0,0,0,0,0,0,0,0,0,0,0,0,0,0,0,0,0,0,-1.1467,-1.1467,0,-1.1539,-1.154,-1.1541,-1.1609,-1.161,-1.1611,-1.1612,-1.1679,-1.168,-1.1681,0,0,0,0,0,0,0,0,0,0,0,0,0,-1.1381,-1.1382,-1.1466,-1.1467,-1.1468,-1.1539,-1.154,-1.1541,-1.1609,-1.161,-1.1611,-1.1612,-1.1679,-1.168,-1.1681,0,0,0,0,0,0,0,0,0,0,0,0,0,-1.1432,-1.1383,-1.1466,-1.1511,-1.1516,-1.1539,-1.154,-1.1541,-1.1609,-1.161,-1.1611,-1.1613,-1.1678,-1.168,-1.1681,-1.1664,0,0,-1.1686,-1.1686,0,0,0,0,0,0,0,0,-1.1429,-1.1435,-1.1504,-1.1508,-1.1513,-1.1567,-1.1535,-1.1582,-1.1608,-1.1573,-1.1612,-1.1613,-1.164,-1.1645,-1.1655,-1.1667,-1.167,-1.1686,-1.1687,-1.1687,-1.1688,0,0,0,0,0,0,0,-1.1426,-1.1432,-1.1495,-1.1504,-1.151,-1.1525,-1.1534,-1.1544,-1.1598,-1.1576,-1.1582,-1.159,-1.1643,-1.1654,-1.1657,-1.1671,-1.1686,-1.1687,-1.1688,-1.1688,-1.1672,-1.167,0,0,0,0,0,0,-1.1416,-1.1429,-1.1493,-1.1497,-1.1474,-1.1526,-1.1536,-1.1548,-1.1598,-1.1607,-1.1588,-1.1593,-1.1651,-1.1656,-1.166,-1.1643,-1.1687,-1.1689,-1.1689,-1.1673,-1.1671,-1.167,0,0,0,0,0,0,-1.1414,-1.1421,-1.149,-1.1465,-1.1475,-1.1526,-1.1539,-1.1549,-1.156,-1.1607,-1.1617,-1.159,-1.1652,-1.1658,-1.1663,-1.1646,-1.1689,-1.1691,-1.1674,-1.1672,-1.1671,-1.1608,0,0,0,0,0,0,-1.1411,-1.142,-1.1415,-1.1464,-1.1476,-1.1493,-1.1538,-1.1549,-1.1563,-1.1569,-1.1611,-1.1619,-1.1653,-1.166,-1.1664,-1.1649,-1.1692,-1.1676,-1.1674,-1.1671,-1.1611,-1.1604,-1.1597,0,0,0,0,0,-1.1408,-1.1393,-1.1414,-1.1422,-1.1471,-1.1492,-1.1498,-1.154,-1.1561,-1.1556,-1.1587,-1.1618,-1.1648,-1.166,-1.1665,-1.165,-1.1677,-1.1674,-1.1671,-1.1614,-1.1605,-1.1597,0,0,0,0,0,0,-1.1337,-1.14,-1.1425,-1.1425,-1.1453,-1.1503,-1.1498,-1.1528,-1.1548,-1.1553,-1.1601,-1.161,-1.1609,-1.163,-1.1643,-1.1636,-1.1667,-1.1665,-1.1622,-1.1613,-1.1606,-1.16,-1.1693,0,0,0,0,0,-1.1323,-1.1336,-1.139,-1.1385,-1.1398,-1.1445,-1.1456,-1.1486,-1.1515,-1.1527,-1.1558,-1.1583,-1.1599,-1.1607,-1.1624,-1.1615,-1.1625,-1.1607,-1.16,-1.1594,-1.1591,-1.1587,-1.158,-1.166,-1.166,-1.166,0,0,-1.129,-1.1327,-1.1332,-1.1372,-1.1397,-1.1408,-1.1454,-1.1464,-1.1473,-1.1527,-1.1534,-1.1558,-1.159,-1.1588,-1.1589,-1.1605,-1.1571,-1.159,-1.1585,-1.1585,-1.1583,-1.1576,-1.1569,-1.1658,-1.1658,-1.1659,0,0,-1.1238,-1.1267,-1.1267,-1.1292,-1.133,-1.1362,-1.1362,-1.1409,-1.1427,-1.1436,-1.1477,-1.1487,-1.1512,-1.1533,-1.1547,-1.1505,-1.1534,-1.1509,-1.147,-1.1466,-1.146,-1.1455,-1.1438,-1.1432,-1.1506,-1.1506,-1.1505,0,-1.1193,-1.1214,-1.1262,-1.127,-1.1286,-1.1339,-1.1338,-1.1359,-1.14,-1.1408,-1.1428,-1.1461,-1.1486,-1.149,-1.1479,-1.1489,-1.1489,-1.1503,-1.1458,-1.1453,-1.1448,-1.1433,-1.1427,-1.1502,-1.1503,-1.1503,-1.1503,0,-1.1156,-1.117,-1.1164,-1.1205,-1.1221,-1.1224,-1.1271,-1.128,-1.1309,-1.1339,-1.1346,-1.1379,-1.1403,-1.1406,-1.1433,-1.1414,-1.1423,-1.1449,-1.1481,-1.1436,-1.1423,-1.1417,-1.1497,-1.1499,-1.15,-1.15,0,0,-1.1058,-1.1128,-1.1125,-1.1145,-1.1192,-1.1202,-1.1208,-1.1234,-1.1241,-1.1267,-1.1272,-1.1293,-1.1318,-1.1334,-1.1364,-1.1361,-1.1324,-1.1387,-1.1389,-1.1373,-1.1302,-1.1281,-1.1273,-1.1344,-1.1343,-1.1343,-1.1299,0,-1.1012,-1.1028,-1.1072,-1.1073,-1.1086,-1.1138,-1.1142,-1.117,-1.1198,-1.1212,-1.1242,-1.1256,-1.1289,-1.1298,-1.1298,-1.1328,-1.131,-1.1332,-1.1346,-1.1346,-1.1335,-1.1267,-1.1244,-1.1201,-1.1294,-1.1293,-1.1293,0,-1.096,-1.0987,-1.0989,-1.1037,-1.1044,-1.1048,-1.1076,-1.1089,-1.1122,-1.1142,-1.1161,-1.1196,-1.1202,-1.1234,-1.1242,-1.1257,-1.1265,-1.1281,-1.1281,-1.1282,-1.1315,-1.1264,-1.1189,-1.1181,-1.1285,-1.1286,-1.1286,0,-1.0887,-1.0923,-1.093,-1.0945,-1.1001,-1.1002,-1.1025,-1.106,-1.1073,-1.1097,-1.1106,-1.1129,-1.1141,-1.1158,-1.1197,-1.1216,-1.1201,-1.1236,-1.1216,-1.1215,-1.1208,-1.1208,-1.1131,-1.1217,-1.1217,-1.1217,-1.1217,0,-1.083,-1.0829,-1.0898,-1.0901,-1.0902,-1.0953,-1.0951,-1.0979,-1.1009,-1.1018,-1.1064,-1.107,-1.1123,-1.1135,-1.1166,-1.1167,-1.1173,-1.1188,-1.1196,-1.1183,-1.1181,-1.1187,-1.119,-1.1216,-1.1216,-1.1216,-1.1216,0,-1.0747,-1.0794,-1.0804,-1.0858,-1.0871,-1.0869,-1.0914,-1.0918,-1.095,-1.096,-1.0965,-1.1015,-1.1031,-1.1073,-1.11,-1.112,-1.1113,-1.1129,-1.1102,-1.1107,-1.1084,-1.1085,-1.1008,-1.0999,-1.1092,-1.1091,-1.109,0,-1.0707,-1.0708,-1.0763,-1.0773,-1.0795,-1.0811,-1.0826,-1.0876,-1.0889,-1.0928,-1.0927,-1.0948,-1.0967,-1.0991,-1.1027,-1.1048,-1.1063,-1.1035,-1.1066,-1.1053,-1.1061,-1.1059,-1.1059,-1.1027,-1.1026,-1.1025,-1.1024,0,-1.0629,-1.0653,-1.0674,-1.0703,-1.072,-1.0744,-1.0771,-1.0776,-1.0833,-1.0844,-1.0864,-1.0879,-1.0908,-1.0927,-1.0954,-1.0975,-1.1007,-1.1014,-1.1011,-1.0996,-1.098,-1.0987,-1.1081,-1.1015,-1.1016,-1.1017,-1.1017,-1.1017,-1.0565,-1.0569,-1.0608,-1.063,-1.0656,-1.0681,-1.0688,-1.0723,-1.074,-1.0769,-1.0798,-1.0814,-1.0847,-1.0887,-1.0906,-1.0918,-1.0935,-1.0929,-1.0928,-1.0925,-1.0919,-1.098,-1.0923,-1.0923,-1.0923,-1.0924,-1.0924,0,-1.0488,-1.0518,-1.0537,-1.0575,-1.0592,-1.0626,-1.0657,-1.0668,-1.0683,-1.0712,-1.0731,-1.0753,-1.0773,-1.0812,-1.0834,-1.0836,-1.0851,-1.084,-1.0839,-1.0843,-1.0903,-1.0903,-1.0827,-1.0827,-1.0827,-1.0827,-1.0827,-1.0827,-1.045,-1.0458,-1.0487,-1.0507,-1.0536,-1.0554,-1.0569,-1.0592,-1.0616,-1.0639,-1.0657,-1.0684,-1.0716,-1.0742,-1.0761,-1.0772,-1.0777,-1.076,-1.0775,-1.083,-1.0839,-1.0847,-1.0848,-1.0761,-1.0761,-1.0714,-1.0714,-1.0713]}]]